Date String (YYYY-MM-DD hh:mm:ss) UTC,Instrument flags,absolute air pressure of the measurement (hPa),sample flow rate (lpm),inlet stack bypass flow (lpm),air temperature of the measurement (°C),ambient temperature measured by the external sensor (°C),aerosol sample conditioner tube jacket temperature (°C),OPC LED temperature (°C),internal box temperature (°C),relative humidity of the measurement (%),span deviation,mass concentration of particles derived from Lorenz-Mie calculation of OPC scattering (μg/m³),mass concentration of particles derived from Lorenz-Mie calculation of OPC scattering (μg/m³),mass concentration of particles derived from Lorenz-Mie calculation of OPC scattering (μg/m³)
DateTimeUTC,F1_M11,P_M11,Q1_M11,Q2_M11,T1_M11,T2_M11,T3_M11,T4_M11,T5_M11,U1_M11,ZSPAN_M11,X0_M11,X2_M11,X1_M11
2024-06-01 06:00:00,SystemResetWarning,0829.3,5.00,000.00,030.9,030.2,000.0,039.2,032.6,024.7,0002.1,0024.46,0009.84,0008.48
2024-06-01 06:01:00,SystemResetWarning,0829.3,4.99,000.00,030.9,030.2,000.0,039.3,032.6,024.6,0002.1,0024.43,0009.76,0008.36
2024-06-01 06:02:00,SystemResetWarning,0829.3,5.00,000.00,030.9,030.2,000.0,039.3,032.6,024.7,0002.3,0022.97,0009.64,0008.24
2024-06-01 06:03:00,SystemResetWarning,0829.3,5.00,000.00,030.9,030.2,000.0,039.3,032.6,024.6,0002.3,0022.67,0009.52,0008.13
2024-06-01 06:04:00,SystemResetWarning,0829.4,5.00,000.00,030.9,030.2,000.0,039.3,032.6,024.0,0002.5,0022.64,0009.40,0007.99
2024-06-01 06:05:00,SystemResetWarning,0829.3,5.00,000.00,030.9,030.2,000.0,039.3,032.6,023.7,0002.5,0024.52,0009.24,0007.82
2024-06-01 06:06:00,SystemResetWarning,0829.4,5.00,000.00,030.9,030.2,000.0,039.3,032.6,023.9,0002.4,0024.54,0009.10,0007.66
2024-06-01 06:07:00,SystemResetWarning,0829.4,5.01,000.00,030.9,030.2,000.0,039.3,032.6,024.2,0002.3,0024.29,0008.99,0007.53
2024-06-01 06:08:00,SystemResetWarning,0829.3,5.00,000.00,030.9,030.2,000.0,039.3,032.6,024.2,0002.2,0023.93,0008.87,0007.40
2024-06-01 06:09:00,SystemResetWarning,0829.4,5.00,000.00,030.9,030.2,000.0,039.3,032.6,024.3,0001.9,0023.97,0008.80,0007.29
2024-06-01 06:10:00,SystemResetWarning,0829.4,5.00,000.00,030.9,030.2,000.0,039.3,032.6,024.4,0001.8,0024.21,0008.76,0007.22
2024-06-01 06:11:00,SystemResetWarning,0829.3,4.99,000.00,031.0,030.2,000.0,039.3,032.6,024.6,0001.6,0024.12,0008.71,0007.15
2024-06-01 06:12:00,SystemResetWarning,0829.3,4.99,000.00,031.0,030.2,000.0,039.3,032.6,025.0,0001.6,0024.60,0008.71,0007.13
2024-06-01 06:13:00,SystemResetWarning,0829.3,5.00,000.00,031.0,030.2,000.0,039.4,032.7,024.9,0001.0,0026.41,0008.76,0007.13
2024-06-01 06:14:00,SystemResetWarning,0829.3,4.99,000.00,031.0,030.2,000.0,039.4,032.7,024.8,0001.1,0026.30,0008.80,0007.13
2024-06-01 06:15:00,SystemResetWarning,0829.4,5.01,000.00,031.0,030.2,000.0,039.4,032.7,024.8,0001.4,0025.86,0008.83,0007.15
2024-06-01 06:16:00,SystemResetWarning,0829.5,5.01,000.00,031.0,030.2,000.0,039.4,032.7,024.8,0001.5,0025.15,0008.93,0007.19
2024-06-01 06:17:00,SystemResetWarning,0829.5,5.00,000.00,031.0,030.2,000.0,039.4,032.7,024.9,0001.0,0025.96,0009.05,0007.27
2024-06-01 06:18:00,SystemResetWarning,0829.5,5.00,000.00,031.0,030.2,000.0,039.4,032.7,025.1,0000.7,0025.78,0009.14,0007.34
2024-06-01 06:19:00,SystemResetWarning,0829.5,5.00,000.00,031.0,030.2,000.0,039.4,032.7,025.2,0000.4,0026.00,0009.21,0007.39
2024-06-01 06:20:00,SystemResetWarning,0829.5,5.00,000.00,031.0,030.2,000.0,039.4,032.7,025.4,0000.1,0027.13,0009.32,0007.45
2024-06-01 06:21:00,SystemResetWarning,0829.5,5.00,000.00,031.0,030.2,000.0,039.4,032.7,025.4,0000.0,0026.39,0009.34,0007.48
2024-06-01 06:22:00,SystemResetWarning,0829.6,5.00,000.00,031.0,030.2,000.0,039.4,032.7,025.5,0000.3,0026.19,0009.37,0007.51
2024-06-01 06:23:00,SystemResetWarning,0829.6,5.01,000.00,031.0,030.2,000.0,039.4,032.7,025.6,0000.4,0025.99,0009.43,0007.52
2024-06-01 06:24:00,SystemResetWarning,0829.6,5.01,000.00,031.0,030.3,000.0,039.4,032.7,025.7,0000.8,0026.17,0009.49,0007.53
2024-06-01 06:25:00,SystemResetWarning,0829.6,4.99,000.00,031.0,030.3,000.0,039.4,032.7,025.7,0001.0,0027.83,0009.55,0007.56
2024-06-01 06:26:00,SystemResetWarning,0829.6,5.00,000.00,031.0,030.3,000.0,039.4,032.7,025.7,0000.4,0029.66,0009.63,0007.59
2024-06-01 06:27:00,SystemResetWarning,0829.7,5.00,000.00,031.0,030.3,000.0,039.4,032.7,025.8,0000.1,0028.79,0009.64,0007.62
2024-06-01 06:28:00,SystemResetWarning,0829.6,5.00,000.00,031.0,030.3,000.0,039.5,032.8,025.8,0000.3,0027.35,0009.70,0007.65
2024-06-01 06:29:00,SystemResetWarning,0829.6,5.00,000.00,031.0,030.3,000.0,039.5,032.8,025.7,0000.6,0029.56,0009.79,0007.68
2024-06-01 06:30:00,SystemResetWarning,0829.6,5.00,000.00,031.1,030.3,000.0,039.5,032.7,025.7,0000.7,0029.96,0009.88,0007.70
2024-06-01 06:31:00,SystemResetWarning,0829.6,5.00,000.00,031.1,030.3,000.0,039.5,032.8,025.7,0001.1,0029.80,0009.92,0007.73
2024-06-01 06:32:00,SystemResetWarning,0829.6,4.99,000.00,031.1,030.3,000.0,039.5,032.8,025.8,0001.1,0029.90,0009.97,0007.75
2024-06-01 06:33:00,SystemResetWarning,0829.6,5.00,000.00,031.1,030.3,000.0,039.5,032.7,026.0,0000.8,0030.29,0010.02,0007.76
2024-06-01 06:34:00,SystemResetWarning,0829.6,5.00,000.00,031.1,030.3,000.0,039.5,032.7,026.1,0001.0,0030.90,0010.03,0007.76
2024-06-01 06:35:00,SystemResetWarning,0829.6,5.00,000.00,031.1,030.3,000.0,039.5,032.8,026.0,0001.1,0030.11,0009.97,0007.76
2024-06-01 06:36:00,SystemResetWarning,0829.6,5.01,000.00,031.1,030.3,000.0,039.5,032.8,025.9,0001.3,0029.57,0009.94,0007.76
2024-06-01 06:37:00,SystemResetWarning,0829.6,5.00,000.00,031.1,030.3,000.0,039.5,032.8,025.9,0001.4,0029.42,0009.94,0007.73
2024-06-01 06:38:00,SystemResetWarning,0829.5,5.01,000.00,031.1,030.3,000.0,039.5,032.8,026.0,0001.6,0030.33,0009.90,0007.71
2024-06-01 06:39:00,SystemResetWarning,0829.4,5.00,000.00,031.1,030.3,000.0,039.5,032.8,026.0,0001.9,0030.54,0009.87,0007.68
2024-06-01 06:40:00,SystemResetWarning,0829.5,5.00,000.00,031.1,030.3,000.0,039.5,032.8,026.0,0002.2,0029.10,0009.76,0007.64
2024-06-01 06:41:00,SystemResetWarning,0829.4,4.99,000.00,031.1,030.3,000.0,039.5,032.8,026.0,0002.5,0027.89,0009.55,0007.59
2024-06-01 06:42:00,SystemResetWarning,0829.5,4.99,000.00,031.1,030.3,000.0,039.5,032.8,026.1,0002.2,0027.49,0009.39,0007.54
2024-06-01 06:43:00,SystemResetWarning,0829.5,5.00,000.00,031.1,030.3,000.0,039.5,032.8,026.0,0001.9,0027.36,0009.31,0007.48
2024-06-01 06:44:00,SystemResetWarning,0829.4,5.01,000.00,031.1,030.3,000.0,039.5,032.8,026.1,0002.3,0028.33,0009.20,0007.43
2024-06-01 06:45:00,SystemResetWarning,0829.4,5.00,000.00,031.1,030.3,000.0,039.5,032.8,026.1,0002.1,0027.51,0009.11,0007.41
2024-06-01 06:46:00,SystemResetWarning,0829.4,5.01,000.00,031.1,030.3,000.0,039.5,032.8,026.2,0001.9,0027.05,0009.07,0007.41
2024-06-01 06:47:00,SystemResetWarning,0829.4,5.00,000.00,031.1,030.3,000.0,039.5,032.7,026.2,0002.0,0025.91,0009.00,0007.37
2024-06-01 06:48:00,SystemResetWarning,0829.4,5.00,000.00,031.1,030.2,000.0,039.5,032.7,026.2,0002.0,0023.98,0008.87,0007.32
2024-06-01 06:49:00,SystemResetWarning,0829.4,5.00,000.00,031.1,030.2,000.0,039.5,032.7,026.3,0002.2,0023.56,0008.74,0007.28
2024-06-01 06:50:00,SystemResetWarning,0829.4,4.99,000.00,031.0,030.2,000.0,039.5,032.7,026.2,0001.7,0023.72,0008.62,0007.24
2024-06-01 06:51:00,SystemResetWarning,0829.4,5.00,000.00,031.0,030.2,000.0,039.5,032.7,026.0,0001.3,0025.16,0008.58,0007.21
2024-06-01 06:52:00,SystemResetWarning,0829.4,5.00,000.00,031.0,030.2,000.0,039.5,032.7,026.1,0000.7,0024.70,0008.58,0007.18
2024-06-01 06:53:00,SystemResetWarning,0829.4,5.00,000.00,031.0,030.2,000.0,039.5,032.7,026.2,0000.5,0024.08,0008.58,0007.15
2024-06-01 06:54:00,SystemResetWarning,0829.4,5.00,000.00,031.0,030.2,000.0,039.5,032.7,026.3,0000.5,0023.63,0008.50,0007.14
2024-06-01 06:55:00,SystemResetWarning,0829.4,5.00,000.00,031.0,030.2,000.0,039.5,032.7,026.4,0000.5,0022.51,0008.46,0007.12
2024-06-01 06:56:00,SystemResetWarning,0829.4,5.00,000.00,031.0,030.2,000.0,039.5,032.7,026.4,0000.4,0022.27,0008.42,0007.09
2024-06-01 06:57:00,SystemResetWarning,0829.4,5.00,000.00,031.0,030.2,000.0,039.5,032.7,026.4,0000.1,0021.78,0008.33,0007.04
2024-06-01 06:58:00,SystemResetWarning,0829.4,5.00,000.00,031.0,030.2,000.0,039.5,032.7,026.5,-000.3,0022.14,0008.26,0007.01
2024-06-01 06:59:00,SystemResetWarning,0829.5,5.00,000.00,031.0,030.2,000.0,039.5,032.7,026.5,-000.4,0022.72,0008.23,0007.00
